Погода Сосново-Озерское

Погода Сосново-Озерское : погода сейчас, прогноз погоды и архив. Всё, что Вы хотите узнать о погоде Сосново-Озерское!

Поиск расширенной информации на нашем сайте:

Другие новости

Новости СМИ2

Главная страница сайта

Новости сайта

03.07.2017

Напоминаем, что на нашем специализированном сайте Метеоцентр.Азия вы можете получить высокодетализированные автоматические прогнозы погоды по пунктам России, СНГ и мира в авиационном формате (включающие направление и скорость ветра, видимость, явления погоды, количество и форму облачности, нижнюю и верхнюю границу облачности).

Рекомендуем: Ремонт квартир Харьков

Погода Сосново-Озерское - сегодня

Время (UTC), дата Ветер
(°,м/с) 
Видим.   Явления Облачность Т
(°С)
Тd
(°С)
f(%) Тe
(°С)
Pmin
(гПа)
dP
(гПа)
Po
(мм)
O2
(г/м3)
Тmin Tmax R s Состояние
почвы
21 20.10.17 050 (СВ) н/о    ясно 
-14.5 -16.2 87 -15  1032.2  -0.3  684  292           
00 21.10.17 030 (СВ) 20000 м    3/0 верхняя 
[Ci fib]
-13.7 -15.3 88 -17  1031.6  0.1  684  291  -15         
03 21.10.17 340 (С) 20000 м    3/0 верхняя 
[Ci fib]
-6 -10.1 73 -7  1027.6  -0.3  683  282           
06 21.10.17 320 (СЗ) 20000 м    3/0 верхняя 
[Ci fib]
+0.1 -8.3 53 +1  1023.7  -1.1  683  276           
09 21.10.17 080 (В) 20000 м    10/0 средняя, верхняя 
[Ac trans|Ci sp]
+1.1 -11.3 39 +2  1022.8  -0.4  682  275           
12 21.10.17 250 (З) н/о    10/0 средняя, верхняя 
[Ac trans|Ci sp]
-0.5 -10.4 47 -2  1024.9  1.2  683  277    +3.1       
15 21.10.17 200 (Ю) н/о    10/4 600 м кучево-дожд., средняя 
[Cb cap|Ac und]
-2.2 -3.3 92 -3  1026.6  684  278           
18 21.10.17 240 (ЮЗ) н/о  {ливн. осадки}  10/4 600 м кучево-дожд., средняя 
[Cb cap|Ac und]
-2.4 -4 89 -3  1027.4  0.6  684  278           
21 21.10.17 230 (ЮЗ) н/о    10/3 600 м кучево-дожд., средняя 
[Cb cap|Ac und]
-3.1 -4.2 92 -4  1028.3  0.5  685  279           
00 22.10.17 210 (ЮЗ) 20000 м    10/0 средняя 
[As op]
-3.4 -4.3 93 -3  1028.9  0.4  685  280  -4.6    0.0     
03 22.10.17 230 (ЮЗ) 20000 м    10/0 средняя 
[As op]
-0.7 -3.4 82 -3  1027.9  0.2  685  277           
06 22.10.17 350 (С) 20000 м    10/0 средняя, верхняя 
[Ac trans|Ci sp]
+1.4 -2.1 77 +1  1025.2  -1.5  684  274           
09 22.10.17 040 (СВ) 20000 м    10/0 средняя, верхняя 
[Ac trans|Ci sp]
+0.2 -2.7 81 -1  1024.4  -1.2  683  275           
12 22.10.17 060 (СВ) н/о    8/0 средняя, верхняя 
[Ac cast|Ci sp]
-4 -4.9 93 -5  1025.8  -0.4  683  280    +2       
15 22.10.17 тихо ()   н/о    3/0 верхняя 
[Ci sp]
-6.9 -7.6 95 -7  1026.1  -1  682  283           
18 22.10.17 тихо ()   н/о    3/0 верхняя 
[Ci sp]
-8.4 -9.3 93 -8  1025.2  -1.4  681  284           
21 22.10.17 020 (С) н/о    ясно 
-7.7 -8.4 95 -9  1023.4  -1.3  680  283           
00 23.10.17 040 (СВ) 20000 м    10/0 верхняя 
[Ci sp]
-9.3 -10.1 94 -9  1023.1  -1  679  284  -9.7         
03 23.10.17 340 (С) 20000 м    9/0 средняя, верхняя 
[Ac lent|Ci sp]
-3.6 -4.4 94 -3  1018.9  -1.4  678  277           
06 23.10.17 250 (З) 7-10{10}  20000 м    4/0 средняя, верхняя 
[Ac lent|Ci sp]
+8.8 -6.4 33 +7  1011.4  -2  677  265           
09 23.10.17 260 (З) 4{10}  20000 м    3/0 верхняя 
[Ci sp]
+5.9 -5.3 44 +4  1012.8  0.2  677  267           
12 23.10.17 240 (ЮЗ) н/о    3/0 верхняя 
[Ci fib]
+2.7 -4.5 59 +1  1015.4  1.1  678  271    +9       
15 23.10.17 250 (З) н/о    8/0 верхняя 
[Ci fib]
+1 -4.1 69 -1  1017.5  1.2  679  273           
18 23.10.17 240 (ЮЗ) н/о    4/0 верхняя 
[Ci fib]
+0.9 -3 75 -2  1019.8  680  273           
21 23.10.17 260 (З) н/о    ясно 
-0.3 -3.4 80 -3  1021  0.6  681  275           
Время (UTC), дата Ветер
(°,м/с) 
Видим.   Явления Облачность Т
(°С)
Тd
(°С)
f(%) Тe
(°С)
Pmin
(гПа)
dP
(гПа)
Po
(мм)
O2
(г/м3)
Тmin Tmax R s Состояние
почвы

Для получения пояснительной информации подведите курсор к названию столбца.

ПОГОДА Сосново-Озерское - архив

Всё, что Вы хотите узнать о погоде Сосново-Озерское - удобно и подробно!

Выберите нужную дату (начиная с 1 января 2015* года) и нажмите кнопку "Найти".
Будут отображены архивные сводки погоды по пункту Сосново-Озерское, начиная с указанной даты.


Отображать данные в формате CSV (для использования в таблицах Excel)


Внимание! Наш архив погоды предназначен исключительно для личного некоммерческого использования в познавательных целях. Если Вам необходимы официальные справки о состоянии погоды (для производственных, юридических, коммерческих и т.п. целей), обращайтесь в органы Росгидромета.

*Примечание: данная дата относится к архиву по метеостанциям СССР (Россия, СНГ, Балтия).
Архив по метеостанциям Зарубежной Европы и Азии (кроме Китая) хранится 10 дней, по другим регионам земного шара (Китай, Африка, Америка, Австралия, Океания) - 1 день.

Сосново-Озерское - район местоположения метеостанции


Название, широта, долгота, высота метеостанции:
Сосново-Озерское 52.5°ш. 111.6°д. 952 м над ур. моря [Российская Федерация]

Дополнительная информация

В oтличие oт бoльшинства пoгoдных сайтoв мы публикуем пoдрoбную метеoинфoрмацию в детальнoм прoфессиoнальнoм фoрмате.

Характеристики температуры и влажнoсти вoздуха измеряются на высoте 2 м в тени вдали oт зданий и деревьев.
Скoрoсть ветра измеряется на высoте 10 м (на урoвне рoста челoвека скoрoсть ветра ниже в 1.5-2 раза). Если метеoстанция нахoдится в гoрoде или в лесу, тo скoрoсть ветра занижена на 2-4 м/с пo сравнению с oткрытым местoм. Скoрoсть ветра над акватoриями крупных рек и oзёр, а также на вершинах хoлмoв на 2-5 м/с выше, чем в oбычных услoвиях.
Атмoсфернoе давление в разных тoчках местнoсти мoжет значительнo oтличаться oт давления на метеoстанции, в зависимoсти oт услoвий рельефа (при пoдъёме на 10 м давление пoнижается примернo на 1 мм рт.ст.).